Charleston, SC

12:44 AM EDT on April 23, 2018 (GMT -0400)
Charleston Air Force Base-International

Weather History for KCHS - August, 2013

Change the Weather History Date:

Saturday, August 17, 2013

  Actual Average Record
Temperature  
Mean Temperature 76 °F 81 °F  
Max Temperature 80 °F 90 °F 102 °F (1954)
Min Temperature 71 °F 72 °F 62 °F (1979)
Degree Days  
Heating Degree Days 0 0  
Month to date heating degree days 0 0  
Since 1 June heating degree days 0 1  
Since 1 July heating degree days 0 0  
Cooling Degree Days 11 16  
Month to date cooling degree days 289 281  
Year to date cooling degree days 1629 1593  
Since 1 June cooling degree days 1282 1231  
Growing Degree Days 26 (Base 50)    
Moisture  
Dew Point 70 °F    
Average Humidity 84    
Maximum Humidity 93    
Minimum Humidity 74    
Precipitation  
Precipitation T in 0.23 in 3.30 in (1971)
Month to date precipitation 2.88 3.71  
Year to date precipitation 44.99 32.20  
Sea Level Pressure  
Sea Level Pressure 30.09 in    
Wind  
Wind Speed 5 mph (North)    
Max Wind Speed 12 mph    
Max Gust Speed 15 mph    
Visibility 8 miles    
Events Rain    
T = Trace of Precipitation, MM = Missing Value Source: NWS Daily Summary

Daily Weather History Graph

Daily Weather History Graph

Search for Another Location

Airport or City:

Astronomy

Aug. 17, 2013 Rise Set
Actual Time 6:44 AM EDT 8:02 PM EDT
Civil Twilight 6:18 AM EDT 8:28 PM EDT
Nautical Twilight 5:48 AM EDT 8:59 PM EDT
Astronomical Twilight 5:15 AM EDT 9:31 PM EDT
Moon 5:11 PM EDT (8/17) 2:52 AM EDT (8/17)
Length of Visible Light 14h 09m
Length of Day
13h 17m
Waxing Gibbous, 84% of the Moon is Illuminated
Aug 17
Waxing Gibbous
Aug 20
Full
Aug 28
Last Quarter
Sep 5
New
Sep 12
First Quarter

Hourly Weather History & Observations

Time (EDT) Temp. Heat Index Dew Point Humidity Pressure Visibility Wind Dir Wind Speed Gust Speed Precip Events Conditions
12:56 AM 73.0 °F - 70.0 °F 90% 30.06 in 10.0 mi NNE 6.9 mph - 0.00 in Rain Light Rain
1:56 AM 72.0 °F - 70.0 °F 93% 30.06 in 10.0 mi NNE 4.6 mph - 0.00 in   Overcast
2:56 AM 73.0 °F - 70.0 °F 90% 30.03 in 9.0 mi ENE 9.2 mph - N/A   Overcast
3:02 AM 71.6 °F - 69.8 °F 94% 30.03 in 9.0 mi NE 6.9 mph - N/A   Overcast
3:56 AM 73.0 °F - 70.0 °F 90% 30.03 in 8.0 mi NNE 4.6 mph - N/A   Overcast
4:56 AM 73.0 °F - 70.0 °F 90% 30.03 in 6.0 mi NNE 4.6 mph - N/A   Overcast
5:56 AM 72.0 °F - 70.0 °F 93% 30.04 in 5.0 mi NNE 5.8 mph - 0.00 in Rain Light Rain
6:56 AM 72.0 °F - 70.0 °F 93% 30.05 in 4.0 mi North 5.8 mph - 0.00 in   Overcast
7:13 AM 71.6 °F - 69.8 °F 94% 30.06 in 2.0 mi North 5.8 mph - N/A   Overcast
7:56 AM 72.0 °F - 70.0 °F 93% 30.06 in 2.0 mi North 6.9 mph - N/A   Overcast
8:40 AM 71.6 °F - 69.8 °F 94% 30.08 in 0.5 mi North 5.8 mph - N/A   Overcast
8:56 AM 72.0 °F - 69.1 °F 91% 30.09 in 0.5 mi NNW 5.8 mph - N/A   Overcast
9:56 AM 72.0 °F - 70.0 °F 93% 30.10 in 0.5 mi NNW 6.9 mph - 0.00 in   Light Drizzle
10:13 AM 71.6 °F - 69.8 °F 94% 30.10 in 3.0 mi NNW 5.8 mph - 0.00 in   Overcast
10:42 AM 73.4 °F - 69.8 °F 88% 30.11 in 5.0 mi NNW 6.9 mph - 0.00 in   Overcast
10:56 AM 73.0 °F - 70.0 °F 90% 30.12 in 10.0 mi NW 6.9 mph - 0.00 in   Overcast
11:56 AM 73.9 °F - 70.0 °F 87% 30.14 in 10.0 mi Calm Calm - N/A   Overcast
12:33 PM 75.2 °F - 69.8 °F 83% 30.14 in 10.0 mi Calm Calm - N/A   Overcast
12:56 PM 75.0 °F - 70.0 °F 84% 30.13 in 10.0 mi NW 3.5 mph - N/A   Overcast
1:56 PM 78.1 °F - 71.1 °F 79% 30.09 in 10.0 mi NW 6.9 mph - N/A   Mostly Cloudy
2:56 PM 79.0 °F - 71.1 °F 77% 30.09 in 10.0 mi Calm Calm - N/A   Overcast
3:56 PM 80.1 °F 83.6 °F 71.1 °F 74% 30.09 in 10.0 mi WSW 5.8 mph - N/A   Mostly Cloudy
4:56 PM 78.1 °F - 70.0 °F 76% 30.10 in 10.0 mi West 8.1 mph - N/A   Overcast
5:56 PM 77.0 °F - 70.0 °F 79% 30.11 in 10.0 mi NW 8.1 mph - N/A   Mostly Cloudy
6:56 PM 75.9 °F - 70.0 °F 82% 30.09 in 10.0 mi North 6.9 mph - 0.00 in   Overcast
7:56 PM 75.0 °F - 70.0 °F 84% 30.11 in 10.0 mi Calm Calm - N/A   Overcast
8:56 PM 73.9 °F - 70.0 °F 87% 30.14 in 10.0 mi NNE 3.5 mph - N/A   Overcast
9:56 PM 73.9 °F - 70.0 °F 87% 30.16 in 10.0 mi NNE 4.6 mph - N/A   Overcast
10:56 PM 73.0 °F - 70.0 °F 90% 30.17 in 10.0 mi Calm Calm - 0.00 in   Mostly Cloudy
11:56 PM 73.0 °F - 70.0 °F 90% 30.16 in 10.0 mi Calm Calm - N/A   Mostly Cloudy